Total_Precipitation_Accumulation
0.49 0.50 0.54 0.56 0.48 0.42 0.39 0.48 0.55 0.62 0.68 0.80 0.86 0.84 0.77 0.71 0.82 0.92 0.72 0.65 0.76 0.85 0.60 0.39 0.43 0.72 0.76 0.42 0.12 0.24 0.22 0.31 0.37 0.90 0.80 1.08 0.73 0.49 0.37 0.40 1.35 1.61 1.45 0.96 1.05 0.89 0.69
0.47 0.51 0.56 0.49 0.45 0.42 0.46 0.53 0.55 0.62 0.78 0.82 0.89 0.84 0.74 0.71 0.67 0.79 0.63 0.46 0.58 1.10 0.66 0.39 0.56 0.96 0.68 0.26 0.03 0.09 0.20 0.16 0.34 0.78 0.82 1.14 0.74 0.47 0.33 0.40 0.89 1.29 1.72 1.14 0.97 0.84 0.54
0.44 0.51 0.54 0.47 0.43 0.40 0.48 0.60 0.58 0.62 0.71 0.73 0.82 0.73 0.66 0.76 0.70 0.75 0.64 0.61 0.86 1.13 0.60 0.59 0.88 1.05 0.56 0.09 0.03 0.09 0.15 0.23 0.37 0.70 0.96 0.98 0.64 0.63 0.35 0.32 0.29 0.84 1.84 1.44 0.93 1.02 0.56
0.43 0.49 0.51 0.47 0.39 0.40 0.50 0.59 0.57 0.61 0.67 0.70 0.83 0.70 0.70 0.76 0.63 0.61 0.59 0.56 0.82 1.00 0.75 0.74 1.19 1.10 0.37 0.02 0.03 0.03 0.12 0.23 0.29 0.68 0.82 1.11 0.97 0.67 0.42 0.27 0.33 0.58 1.48 1.79 0.98 1.02 0.83
0.46 0.46 0.46 0.44 0.37 0.45 0.59 0.61 0.54 0.55 0.69 0.83 0.88 0.78 0.78 0.69 0.61 0.60 0.52 0.59 0.76 0.74 0.76 1.23 1.12 0.68 0.17 0.04 0.06 0.03 0.14 0.23 0.26 0.72 1.01 1.81 1.72 0.90 0.53 0.54 0.57 0.52 0.64 1.05 1.12 0.85 0.94
0.44 0.45 0.44 0.40 0.39 0.51 0.62 0.64 0.59 0.65 0.80 0.94 0.87 0.79 0.85 0.78 0.76 0.70 0.69 0.84 1.10 1.06 1.02 1.56 0.96 0.83 0.15 0.05 0.14 0.08 0.22 0.30 0.50 1.15 1.80 2.63 1.94 1.28 0.71 0.78 0.58 0.34 0.33 0.33 0.58 0.74 0.74
0.45 0.47 0.43 0.37 0.39 0.48 0.58 0.63 0.60 0.72 0.75 0.84 0.79 0.83 0.87 0.79 0.95 1.11 1.26 1.67 1.48 1.61 1.19 0.81 0.51 0.40 0.17 0.26 0.39 0.27 0.35 0.56 0.97 1.57 1.70 2.37 1.51 1.04 0.44 0.24 0.16 0.18 0.21 0.23 0.21 0.35 0.65
0.49 0.56 0.48 0.47 0.49 0.60 0.64 0.66 0.67 0.78 0.84 0.89 0.82 0.84 0.84 0.81 1.07 1.32 1.32 1.28 0.80 0.83 0.89 0.41 0.36 0.36 0.23 0.48 0.74 0.58 0.40 0.98 1.00 1.26 1.60 2.22 1.04 0.31 0.35 0.27 0.23 0.30 0.29 0.16 0.16 0.21 0.41
0.58 0.58 0.44 0.47 0.53 0.66 0.68 0.66 0.76 0.86 0.92 0.95 0.91 0.95 1.13 1.23 1.35 1.82 1.18 0.80 0.77 1.00 1.28 0.86 0.55 0.48 0.41 0.84 0.78 0.76 0.55 1.14 0.77 1.01 1.57 1.64 0.60 0.35 0.49 0.49 0.31 0.22 0.23 0.17 0.16 0.16 0.25
0.69 0.66 0.59 0.63 0.61 0.67 0.71 0.79 1.01 1.14 1.10 1.10 1.14 1.43 1.55 1.79 2.13 1.27 1.34 0.98 1.04 1.66 2.26 1.23 0.79 0.60 0.72 0.99 0.99 0.56 1.01 1.37 0.70 1.04 1.36 1.21 0.61 0.56 0.71 0.54 0.34 0.28 0.13 0.06 0.12 0.27 0.30
0.79 0.83 0.86 0.78 0.80 0.83 0.81 0.92 1.05 1.07 1.12 1.22 1.55 1.72 1.78 2.35 2.57 1.48 1.41 1.07 1.31 2.41 2.15 1.11 0.86 0.77 0.78 0.68 0.63 0.76 1.04 1.31 0.54 0.85 1.34 1.22 0.74 0.61 0.94 0.72 0.25 0.31 0.13 0.05 0.18 0.30 0.40
0.92 0.82 0.83 0.79 0.85 0.93 0.92 0.94 0.95 0.88 1.06 1.40 1.40 1.32 1.80 2.20 2.29 1.56 1.47 1.66 2.17 2.69 2.03 1.39 1.24 0.88 0.78 0.58 0.62 0.99 1.12 1.06 0.70 0.96 0.93 0.81 0.65 0.58 0.66 0.73 0.45 0.33 0.39 0.37 0.32 0.73 1.01
0.96 0.82 0.86 0.86 0.88 0.92 0.94 0.99 1.06 1.15 1.22 1.24 1.26 1.28 1.64 1.70 1.90 1.90 2.40 2.27 2.64 1.73 1.15 1.20 1.07 0.82 0.75 0.68 0.81 0.90 1.25 1.03 1.42 1.25 1.48 1.59 1.03 0.59 0.50 1.03 0.98 0.95 1.33 1.87 1.47 1.63 0.88
1.08 1.13 1.05 0.99 1.02 1.02 1.15 1.11 1.30 1.43 1.33 1.34 1.39 1.31 1.60 1.41 2.03 2.02 3.05 2.27 1.78 0.68 1.03 0.92 0.39 0.47 0.54 0.32 0.61 0.78 0.93 0.73 0.59 0.40 0.84 1.15 1.19 0.76 0.56 1.00 1.36 1.03 1.26 1.66 1.19 0.62 0.30
1.02 1.14 1.16 1.13 1.26 1.31 1.39 1.25 1.23 1.32 1.36 1.75 1.70 1.94 2.73 1.54 2.11 2.71 2.91 2.36 1.11 0.96 1.13 0.67 0.50 0.41 0.39 0.31 0.63 0.74 0.78 0.47 0.39 0.27 0.77 0.70 0.62 0.42 0.36 0.47 0.90 1.31 1.40 0.76 1.01 0.55 0.44
1.16 1.09 1.23 1.38 1.35 1.41 1.42 1.35 1.39 1.36 1.60 1.99 1.89 2.14 2.67 1.82 1.86 3.49 3.40 1.92 1.04 0.86 0.55 0.35 0.47 0.27 0.22 0.27 0.59 0.59 0.66 0.55 0.40 0.26 0.44 0.60 0.86 0.50 0.56 0.68 0.94 1.05 0.73 1.08 1.80 1.17 0.47
1.43 1.35 1.36 1.50 1.43 1.44 1.52 1.48 1.49 1.64 1.94 1.87 1.51 2.64 2.15 2.41 2.67 3.94 3.22 1.71 0.97 0.52 0.53 0.40 0.17 0.29 0.23 0.16 0.43 0.39 0.47 0.46 0.35 0.16 0.27 0.86 1.20 0.74 0.90 0.97 0.69 1.04 1.52 1.18 1.21 0.59 0.60
1.52 1.69 1.72 1.70 1.65 1.49 1.66 1.57 1.34 1.70 2.14 2.10 1.74 2.19 2.00 2.69 3.69 2.80 2.22 1.75 0.97 0.52 0.44 0.41 0.30 0.36 0.27 0.15 0.33 0.25 0.22 0.33 0.27 0.31 0.49 0.83 1.46 1.05 0.42 0.41 0.23 0.53 0.65 0.89 1.10 0.70 0.47
1.56 1.73 1.87 1.91 1.70 1.56 1.69 1.84 1.58 1.73 3.01 3.30 2.37 2.44 2.97 2.04 1.90 1.55 1.77 1.24 0.71 0.45 0.40 0.40 0.20 0.16 0.16 0.12 0.27 0.12 0.12 0.10 0.14 0.25 0.60 1.11 1.89 1.40 0.72 1.02 0.70 0.86 0.51 0.77 1.34 1.46 1.03
1.93 1.68 1.75 1.73 1.81 1.79 1.87 1.71 1.66 1.86 2.61 3.27 2.68 2.52 3.77 3.00 1.35 1.64 1.56 1.11 0.72 0.37 0.31 0.38 0.23 0.11 0.09 0.07 0.07 0.13 0.08 0.03 0.03 0.13 0.51 1.25 1.40 1.17 0.89 1.01 1.04 0.72 0.48 0.77 1.85 2.31 0.78
1.89 1.80 1.77 1.81 1.92 1.94 2.38 2.08 1.84 2.03 2.31 2.84 2.28 1.27 1.13 1.36 0.95 0.86 1.20 1.10 0.71 0.56 0.42 0.37 0.28 0.14 0.25 0.23 0.05 0.03 0.04 0.04 0.06 0.07 0.35 1.36 1.56 1.07 0.46 0.19 0.70 0.74 0.56 0.78 1.58 1.05 1.13
1.76 1.90 1.96 2.28 2.14 2.49 2.78 2.49 2.19 2.44 3.32 2.74 2.05 1.42 0.92 0.52 0.29 0.51 1.06 1.17 0.80 0.69 0.62 0.31 0.20 0.13 0.10 0.17 0.15 0.12 0.08 0.11 0.13 0.11 0.30 0.90 1.49 1.32 0.85 0.36 0.36 0.62 0.61 0.81 0.84 0.77 0.85
1.55 1.64 1.76 1.88 2.04 2.04 1.90 2.11 2.44 2.94 4.19 3.02 1.83 1.29 1.68 0.76 0.32 0.53 0.74 0.93 0.71 0.59 0.43 0.14 0.14 0.22 0.15 0.06 0.04 0.05 0.08 0.12 0.29 0.33 0.36 0.76 1.08 1.31 0.81 0.49 0.71 1.15 0.77 0.60 0.38 0.37 0.49
1.62 1.61 1.43 1.47 1.58 1.84 1.88 1.87 1.96 2.24 3.13 2.86 1.94 2.17 2.19 1.03 0.39 0.33 0.51 0.79 0.73 0.54 0.61 0.15 0.13 0.24 0.15 0.06 0.08 0.08 0.14 0.09 0.09 0.19 0.34 0.37 0.69 1.18 0.90 0.78 1.16 0.65 0.51 0.35 0.36 0.36 0.32
1.37 1.37 1.34 1.24 1.28 1.44 1.62 1.86 1.50 1.62 2.32 2.26 1.81 2.21 2.01 1.10 0.31 0.22 0.40 0.62 0.77 0.74 0.71 0.38 0.12 0.11 0.12 0.22 0.39 0.36 0.36 0.40 0.22 0.11 0.05 0.24 0.47 0.93 0.68 0.47 0.27 0.02 0.05 0.17 0.23 0.37 0.20
1.25 1.17 1.28 1.51 1.30 1.18 1.29 1.49 1.26 1.29 1.56 1.79 1.40 1.95 2.47 1.91 0.35 0.16 0.28 0.46 0.86 0.88 0.89 0.61 0.32 0.19 0.35 0.72 0.75 0.69 0.44 0.32 0.27 0.30 0.21 0.07 0.26 0.92 0.60 0.55 0.11 0.00 0.00 0.00 0.03 0.21 0.30
1.67 1.29 1.14 1.26 1.45 1.19 1.26 1.42 1.30 1.32 1.57 1.85 1.28 1.65 2.33 1.97 0.36 0.15 0.39 0.35 0.60 0.94 1.21 0.89 0.78 0.42 0.53 1.02 0.95 0.59 0.21 0.12 0.18 0.24 0.25 0.43 0.50 0.68 0.46 0.63 0.08 0.00 0.00 0.01 0.08 0.15 0.12
1.84 1.82 1.71 1.18 1.04 1.30 1.48 1.60 1.74 1.54 1.75 2.12 1.27 1.30 2.00 1.93 0.53 0.09 0.15 0.28 0.53 0.91 1.20 1.13 1.51 1.03 1.10 1.46 1.23 0.84 0.57 0.46 0.23 0.11 0.14 0.30 0.38 0.42 0.38 0.62 0.19 0.00 0.00 0.03 0.04 0.00 0.00
1.94 1.56 1.51 1.39 1.05 0.98 1.25 1.52 1.78 1.61 1.63 1.99 1.36 1.00 1.52 2.04 1.05 0.23 0.15 0.19 0.31 0.65 1.22 1.23 1.69 1.07 1.18 1.25 1.20 0.95 0.73 0.53 0.37 0.24 0.08 0.30 0.29 0.31 0.18 0.12 0.01 0.01 0.01 0.00 0.00 0.00 0.00